This is the latest recevied weather packets stored in our database for station/object DO9LL-1. If no packets are shown the sender has not sent any weather packets the latest 10 day(s).
| Time | Temp. | Humidity | Pressure | Rain* | Wind** | Luminosity | Snow |
|---|---|---|---|---|---|---|---|
| 1777495654 | 11.67° C | 44% | 1027.4 hPa | 0 mm | - | - | - |
| 1777495050 | 11.67° C | 43% | 1027.3 hPa | 0 mm | - | - | - |
| 1777494446 | 11.67° C | 42% | 1027.3 hPa | 0 mm | - | - | - |
| 1777493841 | 11.67° C | 42% | 1027.2 hPa | 0 mm | - | - | - |
| 1777493237 | 12.22° C | 41% | 1027.1 hPa | 0 mm | - | - | - |
| 1777492654 | 12.22° C | 41% | 1027 hPa | 0 mm | - | - | - |
| 1777492050 | 12.22° C | 41% | 1027 hPa | 0 mm | - | - | - |
| 1777491447 | 12.78° C | 40% | 1026.9 hPa | 0 mm | - | - | - |
| 1777490838 | 12.78° C | 40% | 1026.7 hPa | 0 mm | - | - | - |
| 1777489947 | 12.78° C | 40% | 1026.6 hPa | 0 mm | - | - | - |
| 1777489343 | 13.33° C | 40% | 1026.5 hPa | 0 mm | - | - | - |
| 1777488740 | 13.33° C | 39% | 1026.3 hPa | 0 mm | - | - | - |
| 1777488136 | 13.89° C | 38% | 1026.2 hPa | 0 mm | - | - | - |
| 1777487553 | 13.89° C | 37% | 1026.2 hPa | 0 mm | - | - | - |
| 1777486949 | 14.44° C | 37% | 1026.1 hPa | 0 mm | - | - | - |
| 1777486347 | 15° C | 36% | 1026 hPa | 0 mm | - | - | - |
| 1777485743 | 15.56° C | 36% | 1025.8 hPa | 0 mm | - | - | - |
| 1777485139 | 15.56° C | 36% | 1025.8 hPa | 0 mm | - | - | - |
| 1777484914 | 16.11° C | 34% | 1025.7 hPa | 0 mm | - | - | - |
| 1777484242 | 16.67° C | 33% | 1025.6 hPa | 0 mm | - | - | - |
| 1777483639 | 16.67° C | 32% | 1025.7 hPa | 0 mm | - | - | - |
| 1777483055 | 17.22° C | 32% | 1025.6 hPa | 0 mm | - | - | - |
| 1777482451 | 17.22° C | 31% | 1025.7 hPa | 0 mm | - | - | - |
| 1777481847 | 17.78° C | 32% | 1025.7 hPa | 0 mm | - | - | - |
| 1777481248 | 17.22° C | 32% | 1025.8 hPa | 0 mm | - | - | - |
* Rain latest hour (hover to see other rain measurements)
** Current wind speed in m/s (hover to see current wind gust speed)